Please be sure to check the latest weather conditions by clicking the link and viewing our local weather information!

Check Weather

Welcome to Lakeway Airpark (3R9)

FromTheAir

We’re a community airpark nestled within the town of Lakeway, Texas (17 miles northwest of downtown Austin).

Lakeway Airpark, Inc. was formed by Lakeway residents and interested parties to own and manage Lakeway Airpark (3R9).

The Airpark is a privately owned not for profit public use airport for residents and guests of Lakeway. No public funds are used and the airport is supported by fees and fuel sales at the airport.

Lakeway Airpark is an unmanned facility open for use from Sunrise to Sunset seven days a week. Takeoffs and landings are not permitted at night, between Sunset and Sunrise, by City Ordinance.

Quick Weather Info

Available data for KAUS from the past 2 hours
AUSTIN, TX
Metar
KAUS 151753Z 20005KT 10SM FEW200 FEW300 16/M01 A3027 RMK AO2 SLP253 T01561006 10156 21022 58019

17:53 UTC

Wind: 200° 5kt

Visibility: 10 SM

Sky: FEW 20000 ft

Temp: 16 deg C / 60.8 deg F

Dewpoint: -1 deg C / 30.2 deg F

Pressure: 30.27 inHg

TAF
KAUS 151125Z 1512/1618 20006KT P6SM FEW250